Regional Weather Roundup
Issued by NWS Charleston, WV

Home | Current Version | Previous Version | Text Only | Print | Product List | Glossary Off
Versions: 1 2 3 4 5 6 7 8 9 10 11 12 13 14 15 16 17 18 19 20 21 22 23 24 25 26 27 28 29 30 31 32 33 34 35 36 37 38 39 40 41 42 43 44 45 46 47 48 49 50

000
ASUS41 KRLX 290410
RWRRLX
West Virginia Regional Weather Roundup
National Weather Service Charleston WV
1100 PM EST SUN DEC 28 2014

Note: "fair" indicates few or no clouds below 12,000 feet with no
significant weather and/or obstructions to visibility.

WVZ003-290500-
Northern Panhandle of West Virginia

CITY           SKY/WX    TMP DP  RH WIND       PRES   REMARKS
WHEELING       CLOUDY    35  30  82 W3        30.15R
$$

WVZ009-290500-
Northwest West Virginia

CITY           SKY/WX    TMP DP  RH WIND       PRES   REMARKS
PARKERSBURG    FOG       34  32  92 CALM      30.20S VSB 3/4
$$

WVZ006-290500-
Western West Virginia

CITY           SKY/WX    TMP DP  RH WIND       PRES   REMARKS
HUNTINGTON     CLOUDY    36  35  96 CALM      30.17S
$$

WVZ015-290500-
West Central West Virginia

CITY           SKY/WX    TMP DP  RH WIND       PRES   REMARKS
CHARLESTON     LGT RAIN  37  33  85 VRB5      30.16S
$$

WVZ022-031-290500-
North Central West Virginia

CITY           SKY/WX    TMP DP  RH WIND       PRES   REMARKS
CLARKSBURG     CLOUDY    37  34  89 CALM      30.15S
MORGANTOWN     CLOUDY    36  30  79 CALM      30.15F
$$

WVZ025-035-042-045-290500-
Southern West Virginia

CITY           SKY/WX    TMP DP  RH WIND       PRES   REMARKS
BECKLEY        LGT RAIN  39  37  92 CALM      30.09F
LOGAN          CLOUDY    37  37 100 CALM      30.12S FOG
BLUEFIELD      LGT RAIN  44  41  89 VRB5      30.08F VSB 1/2
LEWISBURG      CLOUDY    43  38  85 CALM      30.10R
$$

WVZ047-290500-
Northern Mountains of West Virginia

CITY           SKY/WX    TMP DP  RH WIND       PRES   REMARKS
ELKINS         CLOUDY    37  36  96 NW6       30.11S
$$

WVZ052-290500-
Eastern Panhandle of West Virginia

CITY           SKY/WX    TMP DP  RH WIND       PRES   REMARKS
MARTINSBURG    CLOUDY    44  31  60 N9        30.13R
PETERSBURG     CLOUDY    44  33  66 NE6       30.12R
$$


USA.gov is the U.S. government's official web portal to all federal, state and local government web resources and services.